"2009-03-01 00:00:30",671384,4.988,157.6,4.707,0.874,7.378,101.4946,3.113,4.499,17.36,0,109.9,13.46,3.88,119.6
"2009-03-01 00:01:00",671385,5.776,158.6,6.254,0.556,7.349,101.4958,3.116,4.404,17.32,0,109.9,13.46,3.88,120.6
"2009-03-01 00:01:30",671386,4.546,155.9,6.755,1.099,4.119,101.4987,3.123,4.283,17.14,0,109.9,13.46,3.89,117.9
"2009-03-01 00:02:00",671387,4.106,155.8,4.015,1,3.037,101.5001,3.127,4.162,16.95,0,109.9,13.46,3.89,117.8
"2009-03-01 00:02:30",671388,4.571,155,7.398,1.233,4.243,101.51,3.152,4.309,17.04,0,109.9,13.45,3.92,117.0
"2009-03-01 00:03:00",671389,4.519,150.5,6.453,1.133,3.926,101.5129,3.16,4.288,16.96,0,109.9,13.45,3.92,112.5
"2009-03-01 00:03:30",671390,5.434,154.7,6.244,1.058,6.37,101.5208,3.18,4.436,17.08,0,109.9,13.45,3.94,116.7
"2009-03-01 00:04:00",671391,5.609,154.8,4.699,1.102,6.41,101.5231,3.186,4.434,17.06,0,109.9,13.45,3.95,116.8
"2009-03-01 00:04:30",671392,3.808,151.2,6.849,1.12,3.986,101.5223,3.184,4.319,16.95,0,109.9,13.45,3.95,113.2
"2009-03-01 00:05:00",671393,3.681,141.5,5.146,0.866,3.707,101.524,3.188,4.434,17.02,0,109.8,13.45,3.95,103.5
"2009-03-01 00:05:30",671394,3.886,148.4,6.912,1.127,3.522,101.5271,3.196,4.259,16.87,0,109.9,13.45,3.96,110.4
"2009-03-01 00:06:00",671395,4.452,153.9,7.392,1.181,5.138,101.5294,3.202,4.401,16.99,0,109.9,13.45,3.97,115.9
"2009-03-01 00:06:30",671396,4.988,152.5,6.423,1.207,6.144,101.5339,3.213,4.402,16.94,0,109.8,13.45,3.98,114.5
"2009-03-01 00:07:00",671397,4.562,141.6,5.41,1.268,5.652,101.5376,3.223,4.524,17.07,0,109.9,13.45,3.99,103.6
"2009-03-01 00:07:30",671398,3.688,143.9,5.274,1.214,4.035,101.5422,3.234,4.386,16.96,0,109.9,13.46,4.00,105.9
"2009-03-01 00:08:00",671399,4.446,144.8,4.398,1.17,4.821,101.5439,3.239,4.37,16.95,0,109.8,13.46,4.00,106.8
"2009-03-01 00:08:30",671400,4.34,150.8,6.865,1.214,4.456,101.5493,3.253,4.273,16.85,0,109.9,13.46,4.02,112.8
"2009-03-01 00:09:00",671401,4.759,148.4,6.333,1.276,5.341,101.5516,3.258,4.416,16.97,0,109.8,13.47,4.02,110.4
"2009-03-01 00:09:30",671402,5.624,147.7,7.709,1.146,5.851,101.5516,3.259,4.467,17.04,0,109.8,13.47,4.02,109.7
"2009-03-01 00:10:00",671403,6.196,154,6.344,1.076,6.668,101.5508,3.256,4.448,17.02,0,109.9,13.46,4.02,116.0
"2009-03-01 00:10:30",671404,4.641,155.4,6.769,1.183,4.792,101.5474,3.248,4.458,16.99,0,109.8,13.46,4.01,117.4
"2009-03-01 00:11:00",671405,5.261,156.6,7.5,1.15,6.025,101.5485,3.251,4.408,16.91,0,109.8,13.47,4.01,118.6
"2009-03-01 00:11:30",671406,4.682,153.5,7.883,1.319,5.081,101.5471,3.247,4.363,16.88,0,109.8,13.47,4.01,115.5
"2009-03-01 00:12:00",671407,3.788,145.1,7.261,0.977,3.413,101.5449,3.241,4.335,16.91,0,109.8,13.47,4.00,107.1
"2009-03-01 00:12:30",671408,5.176,150.9,7.082,1.25,5.574,101.5454,3.243,4.429,17.06,0,109.8,13.47,4.01,112.9
"2009-03-01 00:13:00",671409,5.521,145.1,6.235,1.262,5.759,101.5435,3.238,4.504,17.14,0,109.8,13.47,4.00,107.1
"2009-03-01 00:13:30",671410,5.754,152.3,7.994,1.112,5.575,101.5344,3.215,4.327,16.9,0,109.9,13.47,3.98,114.3
"2009-03-01 00:14:00",671411,5.661,145.4,5.839,1.247,5.521,101.5271,3.196,4.483,17.05,0,109.8,13.47,3.96,107.4
"2009-03-01 00:14:30",671412,6.067,147.6,4.751,1.028,6.179,101.5259,3.193,4.401,17.07,0,109.8,13.47,3.96,109.6
"2009-03-01 00:15:00",671413,5.587,145.7,6.995,1.238,5.693,101.5259,3.193,4.393,17.05,0,109.8,13.47,3.96,107.7
"2009-03-01 00:15:30",671414,5.807,144.6,5.629,1.188,5.415,101.5254,3.192,4.433,17.09,0,109.8,13.47,3.95,106.6
"2009-03-01 00:16:00",671415,5.735,146.9,8.99,1.088,5.321,101.518,3.173,4.399,17.04,0,109.8,13.47,3.94,108.9
"2009-03-01 00:16:30",671416,5.443,144.5,5.518,1.227,4.482,101.5042,3.137,4.371,17.05,0,109.8,13.47,3.90,106.5
"2009-03-01 00:17:00",671417,6.313,147.1,6.83,1.046,6.32,101.4932,3.109,4.366,17.04,0,109.8,13.47,3.87,109.1
"2009-03-01 00:17:30",671418,6.007,148.5,6.19,1.122,6.281,101.492,3.106,4.432,17.15,0,109.8,13.47,3.87,110.5
"2009-03-01 00:18:00",671419,5.665,150.2,7.109,1.221,5.614,101.4901,3.101,4.358,17.1,0,109.8,13.47,3.86,112.2
"2009-03-01 00:18:30",671420,5.81,151.4,6.32,1.229,6.287,101.4765,3.067,4.386,17.15,0,109.8,13.47,3.83,113.4
"2009-03-01 00:19:00",671421,5.128,155.1,6.002,1.292,4.659,101.4601,3.025,4.214,16.98,0,109.8,13.46,3.79,117.1
"2009-03-01 00:19:30",671422,5.182,151.6,6.871,1.287,5.267,101.4581,3.02,4.263,17.05,0,109.8,13.46,3.78,113.6
"2009-03-01 00:20:00",671423,5.715,146.8,7.172,1.208,6.179,101.4581,3.02,4.351,17.15,0,109.8,13.47,3.78,108.8
"2009-03-01 00:20:30",671424,5.947,151.7,5.583,0.904,6.898,101.4578,3.019,4.347,17.17,0,109.8,13.46,3.78,113.7
"2009-03-01 00:21:00",671425,5.436,152.4,6.923,1.058,6.379,101.4519,3.004,4.34,17.2,0,109.8,13.46,3.77,114.4
"2009-03-01 00:21:30",671426,5.617,150.3,6.498,1.141,5.237,101.4417,2.978,4.275,17.15,0,109.8,13.46,3.74,112.3
"2009-03-01 00:22:00",671427,3.773,145,2.318,0.101,2.589,101.4307,2.95,4.05,16.97,0,109.8,13.49,3.71,107.0
"2009-03-01 00:22:30",671428,4.958,154.8,7.606,1.158,5.063,101.4242,2.933,4.248,17.21,0,109.8,13.47,3.70,116.8
"2009-03-01 00:23:00",671429,5.354,155.5,6.749,1.265,6.314,101.4242,2.933,4.266,17.26,0,109.8,13.47,3.70,117.5
"2009-03-01 00:23:30",671430,6.057,156,5.945,1.029,6.819,101.4242,2.933,4.246,17.26,0,109.8,13.47,3.70,118.0
"2009-03-01 00:24:00",671431,6.234,147.7,6.85,1.135,6.308,101.4202,2.923,4.247,17.32,0,109.8,13.47,3.69,109.7
"2009-03-01 00:24:30",671432,5.808,148.3,6.32,1.135,6.179,101.4084,2.893,4.228,17.26,0,109.8,13.47,3.66,110.3
"2009-03-01 00:25:00",671433,4.637,140.1,6.078,0.879,3.835,101.3931,2.854,4.106,17.21,0,109.8,13.47,3.62,102.1
"2009-03-01 00:25:30",671434,5.652,144.1,6.243,1.342,5.447,101.3903,2.847,4.139,17.24,0,109.8,13.47,3.61,106.1
"2009-03-01 00:26:00",671435,6.199,147.9,6.743,1.115,6.018,101.3903,2.847,4.124,17.27,0,109.8,13.48,3.61,109.9
"2009-03-01 00:26:30",671436,6.678,151.3,4.336,0.836,7.61,101.3838,2.83,4.254,17.36,0,109.8,13.48,3.59,113.3
"2009-03-01 00:27:00",671437,6.446,149,5.906,1.027,6.442,101.3717,2.799,4.214,17.36,0,109.8,13.48,3.56,111.0
"2009-03-01 00:27:30",671438,6.779,146.4,5.667,1.065,6.272,101.3587,2.766,4.117,17.33,0,109.8,13.48,3.53,108.4
"2009-03-01 00:28:00",671439,5.381,139.3,5.002,0.873,3.789,101.357,2.762,4.028,17.29,0,109.8,13.48,3.52,101.3
"2009-03-01 00:28:30",671440,6.48,147.1,7.14,1.178,6.139,101.3578,2.764,4.062,17.35,0,109.8,13.48,3.53,109.1
"2009-03-01 00:29:00",671441,6.458,147.5,6.337,1.225,5.791,101.3448,2.731,4.019,17.39,0,109.8,13.48,3.49,109.5
"2009-03-01 00:29:30",671442,6.893,152.3,5.53,0.949,7.396,101.3282,2.688,4.141,17.51,0,109.8,13.48,3.45,114.3
"2009-03-01 00:30:00",671443,7.148,149.5,5.017,0.838,7.28,101.3305,2.694,4.121,17.57,0,109.8,13.48,3.46,111.5
"2009-03-01 00:30:30",671444,6.865,146.8,5.052,0.947,6.83,101.3316,2.697,4.101,17.59,0,109.8,13.48,3.46,108.8
"2009-03-01 00:31:00",671445,6.656,142.9,4.532,0.971,6.429,101.33,2.693,4.014,17.55,0,109.8,13.48,3.45,104.9
"2009-03-01 00:31:30",671446,4.75,135.1,4.537,1.048,3.771,101.3187,2.664,3.918,17.49,0,109.8,13.48,3.43,97.1
"2009-03-01 00:32:00",671447,6.69,142.6,5.555,1.074,6.073,101.3092,2.64,3.893,17.5,0,109.8,13.48,3.40,104.6
"2009-03-01 00:32:30",671448,6.49,144,5.623,1.215,6.508,101.3138,2.651,3.975,17.64,0,109.8,13.48,3.41,106.0
"2009-03-01 00:33:00",671449,6.797,147.9,4.757,1.012,7.404,101.3033,2.625,4.03,17.73,0,109.8,13.48,3.39,109.9
"2009-03-01 00:33:30",671450,7.037,149.3,3.457,0.583,7.58,101.2853,2.579,3.995,17.75,0,109.7,13.48,3.34,111.3
"2009-03-01 00:34:00",671451,6.761,148.8,2.959,0.741,7.548,101.287,2.583,3.987,17.79,0,109.7,13.48,3.34,110.8
"2009-03-01 00:34:30",671452,6.084,146.7,5.9,1.109,5.996,101.2864,2.582,3.801,17.62,0,109.8,13.48,3.34,108.7
"2009-03-01 00:35:00",671453,4.821,138.9,3.967,0.932,3.256,101.2848,2.577,3.649,17.56,0,109.7,13.48,3.34,100.9
"2009-03-01 00:35:30",671454,5.181,139.3,5.844,1.043,3.89,101.261,2.517,3.723,17.68,0,109.7,13.48,3.28,101.3
"2009-03-01 00:36:00",671455,6.658,148,5.408,1.128,7.123,101.2551,2.502,3.895,17.88,0,109.7,13.48,3.26,110.0
"2009-03-01 00:36:30",671456,7.1,149.7,3.651,0.686,8.06,101.2551,2.502,3.9,17.93,0,109.7,13.48,3.26,111.7
"2009-03-01 00:37:00",671457,7.234,149.6,4.078,0.68,7.822,101.2429,2.471,3.891,17.95,0,109.7,13.48,3.23,111.6
"2009-03-01 00:37:30",671458,7.226,147,3.385,0.483,7.145,101.2234,2.421,3.85,17.97,0,109.7,13.48,3.18,109.0
"2009-03-01 00:38:00",671459,7.121,146.5,3.338,0.515,6.863,101.2212,2.415,3.828,18.01,0,109.7,13.48,3.18,108.5
"2009-03-01 00:38:30",671460,5.16,135.8,4.444,0.959,3.436,101.2209,2.414,3.586,17.8,0,109.7,13.48,3.17,97.8
"2009-03-01 00:39:00",671461,5.509,137.4,5.238,1.055,3.331,101.2107,2.388,3.495,17.76,0,109.7,13.48,3.15,99.4
"2009-03-01 00:39:30",671462,6.02,140.9,7.488,1.233,5.197,101.1904,2.337,3.65,17.96,0,109.7,13.48,3.10,102.9
"2009-03-01 00:40:00",671463,7.294,144.8,4.235,0.437,8.04,101.1872,2.329,3.776,18.1,0,109.7,13.48,3.09,106.8
"2009-03-01 00:40:30",671464,6.898,145.5,3.614,0.883,7.91,101.1858,2.325,3.758,18.13,0,109.7,13.49,3.09,107.5
"2009-03-01 00:41:00",671465,7.154,144.8,4.546,0.696,7.679,101.1725,2.291,3.733,18.18,0,109.7,13.49,3.05,106.8
"2009-03-01 00:41:30",671466,7.046,148.5,4.093,0.671,7.386,101.1553,2.247,3.712,18.19,0,109.7,13.49,3.01,110.5
"2009-03-01 00:42:00",671467,7.171,151.2,3.343,0.633,7.02,101.1533,2.242,3.681,18.22,0,109.7,13.49,3.00,113.2
"2009-03-01 00:42:30",671468,7.132,151.3,2.568,0.84,6.901,101.153,2.241,3.673,18.25,0,109.7,13.49,3.00,113.3
"2009-03-01 00:43:00",671469,7.175,147.4,4.922,0.631,6.171,101.1412,2.211,3.596,18.16,0,109.7,13.49,2.97,109.4
"2009-03-01 00:43:30",671470,5.378,137,0.883,0.136,2.302,101.1211,2.16,3.326,17.87,0,109.7,13.52,2.92,99.0
"2009-03-01 00:44:00",671471,5.641,138.7,3.516,0.526,3.314,101.1203,2.158,3.435,17.98,0,109.7,13.5,2.92,100.7
"2009-03-01 00:44:30",671472,7.715,151.7,3.427,0.765,7.577,101.1211,2.16,3.512,18.12,0,109.7,13.5,2.92,113.7
"2009-03-01 00:45:00",671473,7.653,152.3,4.33,0.535,8.53,101.1237,2.166,3.575,18.21,0,109.7,13.5,2.93,114.3
"2009-03-01 00:45:30",671474,7.891,154.2,2.548,0.653,8.27,101.115,2.144,3.57,18.24,0,109.7,13.5,2.90,116.2
"2009-03-01 00:46:00",671475,7.881,152.5,3.145,0.656,7.791,101.098,2.101,3.519,18.24,0,109.7,13.5,2.86,114.5
"2009-03-01 00:46:30",671476,7.835,151.9,3.469,0.658,7.542,101.1009,2.108,3.528,18.27,0,109.7,13.5,2.87,113.9
"2009-03-01 00:47:00",671477,7.667,149.2,3.382,0.671,7.167,101.1023,2.112,3.495,18.28,0,109.7,13.5,2.87,111.2
"2009-03-01 00:47:30",671478,7.623,149,2.554,0.648,7.013,101.1035,2.115,3.489,18.3,0,109.7,13.5,2.87,111.0
"2009-03-01 00:48:00",671479,7.644,149.8,3.762,0.681,6.866,101.0984,2.102,3.47,18.3,0,109.7,13.5,2.86,111.8
"2009-03-01 00:48:30",671480,7.572,151.5,3.606,0.678,6.754,101.0882,2.076,3.456,18.35,0,109.7,13.5,2.84,113.5
"2009-03-01 00:49:00",671481,7.656,151.6,3.26,0.636,6.709,101.0874,2.074,3.435,18.35,0,109.7,13.5,2.83,113.6
"2009-03-01 00:49:30",671482,7.502,152.1,2.722,0.84,6.523,101.0756,2.044,3.434,18.35,0,109.7,13.5,2.80,114.1
"2009-03-01 00:50:00",671483,6.143,145.2,5.3,1.098,3.732,101.0767,2.047,3.128,18.07,0,109.7,13.5,2.81,107.2
"2009-03-01 00:50:30",671484,5.248,142,0.732,0.058,2.895,101.0784,2.051,3.192,18.16,0,109.7,13.53,2.81,104.0
"2009-03-01 00:51:00",671485,7.286,155.2,3.889,0.926,7.167,101.0773,2.048,3.39,18.38,0,109.7,13.5,2.81,117.2
"2009-03-01 00:51:30",671486,7.526,155.1,3.665,0.77,7.781,101.0711,2.032,3.409,18.44,0,109.7,13.5,2.79,117.1
"2009-03-01 00:52:00",671487,7.634,156.2,3.393,0.671,8.01,101.0615,2.008,3.373,18.4,0,109.7,13.5,2.77,118.2
"2009-03-01 00:52:30",671488,7.591,156.2,3.429,0.764,7.412,101.051,1.981,3.371,18.41,0,109.6,13.5,2.74,118.2
"2009-03-01 00:53:00",671489,7.692,157,3.191,0.641,7.395,101.0513,1.982,3.369,18.4,0,109.6,13.5,2.74,119.0
"2009-03-01 00:53:30",671490,6.66,151.5,7.063,1.212,5.011,101.0519,1.983,3.162,18.21,0,109.6,13.5,2.74,113.5
"2009-03-01 00:54:00",671491,6.281,149.7,5.46,1.132,4.27,101.0519,1.983,3.155,18.25,0,109.6,13.5,2.74,111.7
"2009-03-01 00:54:30",671492,6.092,147.4,5.076,1.063,3.841,101.0519,1.983,3.159,18.25,0,109.7,13.5,2.74,109.4
"2009-03-01 00:55:00",671493,7.604,150.7,3.859,0.658,7.308,101.0482,1.974,3.317,18.47,0,109.7,13.5,2.73,112.7
"2009-03-01 00:55:30",671494,7.785,148.7,3.744,0.532,7.715,101.0355,1.941,3.322,18.57,0,109.7,13.51,2.70,110.7
"2009-03-01 00:56:00",671495,7.586,146.1,3.62,0.848,7.446,101.0293,1.926,3.312,18.62,0,109.7,13.51,2.68,108.1
"2009-03-01 00:56:30",671496,7.294,143.3,5.116,1.016,6.658,101.0197,1.901,3.276,18.64,0,109.7,13.51,2.66,105.3
"2009-03-01 00:57:00",671497,7.205,146.5,5.215,1.068,6.446,101.018,1.897,3.209,18.59,0,109.7,13.51,2.66,108.5
"2009-03-01 00:57:30",671498,6.776,144.9,6.436,1.205,5.428,101.018,1.897,3.138,18.56,0,109.6,13.51,2.66,106.9
"2009-03-01 00:58:00",671499,7.099,148.7,6.382,1.151,5.977,101.018,1.897,3.235,18.59,0,109.6,13.51,2.66,110.7
"2009-03-01 00:58:30",671500,7.348,151.6,5.391,1.155,6.679,101.0171,1.895,3.184,18.41,0,109.7,13.51,2.65,113.6
"2009-03-01 00:59:00",671501,7.702,152.4,3.132,0.883,7.43,101.0038,1.861,3.26,18.53,0,109.7,13.52,2.62,114.4
"2009-03-01 00:59:30",671502,7.331,149.2,5.416,1.014,6.674,100.9892,1.823,3.157,18.52,0,109.6,13.51,2.58,111.2
"2009-03-01 01:00:00",671503,7.173,147.8,6.087,1.083,6.285,100.9861,1.815,3.086,18.51,0,109.7,13.52,2.57,109.8
"2009-03-01 01:00:30",671504,7.182,151.7,5.375,1.109,6.644,100.9878,1.82,3.197,18.6,0,109.7,13.52,2.58,113.7
"2009-03-01 01:01:00",671505,7.067,149.7,6.594,1.174,5.877,100.9903,1.826,3.088,18.38,0,109.7,13.52,2.58,111.7
"2009-03-01 01:01:30",671506,7.095,149.5,5.723,1.096,6.396,100.9952,1.839,3.126,18.45,0,109.7,13.52,2.60,111.5
"2009-03-01 01:02:00",671507,7.144,149,5.23,1.021,6.748,100.9975,1.844,3.094,18.47,0,109.7,13.52,2.60,111.0
"2009-03-01 01:02:30",671508,6.97,149.4,5.006,1.15,6.352,100.9964,1.842,3.109,18.55,0,109.6,13.52,2.60,111.4
"2009-03-01 01:03:00",671509,7.01,150.2,5.388,1.084,6.304,100.9905,1.826,3.047,18.47,0,109.6,13.52,2.58,112.2
"2009-03-01 01:03:30",671510,7.094,151.1,5.464,0.994,6.504,100.9798,1.799,3.139,18.44,0,109.6,13.53,2.56,113.1
"2009-03-01 01:04:00",671511,6.652,149.7,6.16,1.191,6.112,100.9758,1.789,3.101,18.34,0,109.7,13.53,2.55,111.7
"2009-03-01 01:04:30",671512,6.806,151.8,6.06,1.125,6.103,100.977,1.792,3.064,18.33,0,109.6,13.53,2.55,113.8
"2009-03-01 01:05:00",671513,5.84,148.8,5.526,1.063,4.482,100.9784,1.796,2.968,18.25,0,109.6,13.53,2.55,110.8
"2009-03-01 01:05:30",671514,6.671,154.9,5.613,1.117,6.322,100.9772,1.793,3.039,18.35,0,109.6,13.53,2.55,116.9
"2009-03-01 01:06:00",671515,6.896,157.7,5.945,1.038,6.604,100.9792,1.798,3.061,18.38,0,109.6,13.53,2.56,119.7
"2009-03-01 01:06:30",671516,7.03,160.5,3.409,0.908,6.876,100.9804,1.801,3.063,18.38,0,109.6,13.53,2.56,122.5
"2009-03-01 01:07:00",671517,6.63,158.8,5.211,1.101,6.322,100.9753,1.788,3.058,18.32,0,109.6,13.53,2.55,120.8
"2009-03-01 01:07:30",671518,6.459,154.3,5.946,1.15,5.415,100.9702,1.775,2.921,18.2,0,109.6,13.53,2.53,116.3
"2009-03-01 01:08:00",671519,6.318,154.6,6.685,1.173,5.591,100.9637,1.758,3.015,18.28,0,109.6,13.53,2.52,116.6
"2009-03-01 01:08:30",671520,6.647,154.1,6.6,1.117,5.928,100.9564,1.74,2.946,18.23,0,109.6,13.53,2.50,116.1
"2009-03-01 01:09:00",671521,6.842,153.4,5.885,1.176,6.735,100.9516,1.727,3.087,18.36,0,109.6,13.53,2.49,115.4
"2009-03-01 01:09:30",671522,7.611,154.9,4.393,0.565,7.697,100.9504,1.724,3.075,18.33,0,109.6,13.53,2.48,116.9
"2009-03-01 01:10:00",671523,7.371,154,5.548,0.939,6.92,100.9504,1.724,3.077,18.33,0,109.6,13.53,2.48,116.0
"2009-03-01 01:10:30",671524,6.691,153.5,5.368,1.212,5.877,100.9504,1.724,2.99,18.23,0,109.6,13.53,2.48,115.5
"2009-03-01 01:11:00",671525,6.277,150.9,6.087,1.204,5.314,100.9504,1.724,2.98,18.26,0,109.6,13.53,2.48,112.9
"2009-03-01 01:11:30",671526,6.777,149.6,5.409,1.167,5.616,100.9504,1.724,2.878,18.15,0,109.6,13.53,2.48,111.6
"2009-03-01 01:12:00",671527,7.062,148.8,5.72,1.064,6.842,100.9504,1.724,2.972,18.24,0,109.6,13.53,2.48,110.8
"2009-03-01 01:12:30",671528,7.501,149.5,3.212,0.724,7.47,100.9482,1.719,3.029,18.27,0,109.6,13.53,2.48,111.5
"2009-03-01 01:13:00",671529,7.382,151.4,3.071,0.644,7.481,100.9405,1.699,3.028,18.31,0,109.6,13.53,2.46,113.4
"2009-03-01 01:13:30",671530,6.912,149.9,5.954,0.965,6.568,100.9321,1.677,2.972,18.27,0,109.6,13.53,2.44,111.9
"2009-03-01 01:14:00",671531,6.805,144.6,6.691,1.104,5.819,100.9267,1.664,2.944,18.25,0,109.6,13.54,2.42,106.6
"2009-03-01 01:14:30",671532,6.371,144.1,6.006,1.176,4.704,100.9264,1.663,2.833,18.19,0,109.6,13.54,2.42,106.1
"2009-03-01 01:15:00",671533,7.183,146.3,5.661,1.098,6.794,100.921,1.649,2.902,18.31,0,109.6,13.54,2.41,108.3
"2009-03-01 01:15:30",671534,7.528,147.5,4.592,0.808,7.253,100.9179,1.641,2.971,18.39,0,109.6,13.54,2.40,109.5
"2009-03-01 01:16:00",671535,7.783,148.2,3.913,0.516,7.618,100.9165,1.638,3.012,18.46,0,109.6,13.54,2.40,110.2
"2009-03-01 01:16:30",671536,7.672,148.7,3.888,0.673,7.335,100.9179,1.641,3.018,18.55,0,109.6,13.54,2.40,110.7
"2009-03-01 01:17:00",671537,7.44,149.7,3.44,0.666,7.258,100.9168,1.638,3.007,18.57,0,109.6,13.54,2.40,111.7
"2009-03-01 01:17:30",671538,7.59,152,3.269,0.46,6.988,100.9171,1.639,2.987,18.51,0,109.6,13.54,2.40,114.0
"2009-03-01 01:18:00",671539,7.266,152.6,2.843,0.715,6.547,100.9171,1.639,2.997,18.43,0,109.6,13.54,2.40,114.6
"2009-03-01 01:18:30",671540,6.753,151,5.001,1.157,5.387,100.9191,1.644,2.82,18.33,0,109.6,13.54,2.40,113.0
"2009-03-01 01:19:00",671541,5.027,142.9,0.825,0.052,2.284,100.9233,1.655,2.691,18.19,0,109.6,13.57,2.41,104.9
"2009-03-01 01:19:30",671542,6.301,146.8,5.959,1.273,4.934,100.9251,1.66,2.822,18.4,0,109.6,13.54,2.42,108.8
"2009-03-01 01:20:00",671543,7.137,150.8,4.95,0.992,7.116,100.9262,1.663,2.925,18.64,0,109.6,13.54,2.42,112.8
"2009-03-01 01:20:30",671544,7.39,152.2,4.074,0.548,7.843,100.9259,1.662,2.964,18.77,0,109.6,13.54,2.42,114.2
"2009-03-01 01:21:00",671545,7.302,153.1,3.92,0.562,7.67,100.9217,1.651,2.974,18.76,0,109.6,13.54,2.41,115.1
"2009-03-01 01:21:30",671546,7.062,154.6,2.312,0.74,7.49,100.911,1.624,2.972,18.77,0,109.6,13.54,2.38,116.6
"2009-03-01 01:22:00",671547,7.236,154.5,3.371,0.652,6.944,100.9016,1.6,2.947,18.72,0,109.6,13.54,2.36,116.5
"2009-03-01 01:22:30",671548,5.763,144.5,5.338,1.039,4.004,100.898,1.59,2.809,18.64,0,109.6,13.54,2.35,106.5
"2009-03-01 01:23:00",671549,6.48,147.6,6.399,1.209,4.873,100.9002,1.596,2.797,18.71,0,109.6,13.54,2.35,109.6
"2009-03-01 01:23:30",671550,6.262,146.4,6.469,1.189,4.759,100.9014,1.599,2.782,18.68,0,109.6,13.54,2.36,108.4
"2009-03-01 01:24:00",671551,7.44,154.1,3.906,0.571,7.602,100.9048,1.608,2.975,18.84,0,109.6,13.54,2.37,116.1
"2009-03-01 01:24:30",671552,7.365,155,2.569,0.851,7.451,100.9074,1.615,2.95,18.84,0,109.6,13.55,2.37,117.0
"2009-03-01 01:25:00",671553,7.365,155.3,4.159,0.834,7.302,100.9088,1.618,2.933,18.81,0,109.6,13.54,2.38,117.3
"2009-03-01 01:25:30",671554,6.746,153.2,5.914,1.127,6.271,100.9108,1.623,2.807,18.63,0,109.6,13.54,2.38,115.2
"2009-03-01 01:26:00",671555,6.74,152.2,5.972,1.083,5.721,100.91,1.621,2.744,18.59,0,109.6,13.54,2.38,114.2
"2009-03-01 01:26:30",671556,5.826,147.4,5.242,1.072,4.479,100.9085,1.617,2.813,18.66,0,109.6,13.55,2.38,109.4
"2009-03-01 01:27:00",671557,6.81,152.4,5.868,1.012,6.704,100.9097,1.62,2.856,18.64,0,109.6,13.55,2.38,114.4
"2009-03-01 01:27:30",671558,6.77,152.7,5.771,1.074,6.69,100.9088,1.618,2.865,18.61,0,109.6,13.55,2.38,114.7
"2009-03-01 01:28:00",671559,6.997,155,4.027,0.927,7.064,100.9071,1.614,2.884,18.63,0,109.6,13.55,2.37,117.0
"2009-03-01 01:28:30",671560,6.831,153.9,4.92,1.089,6.598,100.9017,1.6,2.851,18.57,0,109.6,13.55,2.36,115.9
"2009-03-01 01:29:00",671561,6.74,152.7,5.656,1.128,6.335,100.8987,1.592,2.864,18.58,0,109.6,13.55,2.35,114.7
"2009-03-01 01:29:30",671562,6.432,151.1,6.2,1.154,5.132,100.8978,1.59,2.743,18.49,0,109.6,13.55,2.35,113.1
"2009-03-01 01:30:00",671563,6.283,150.1,5.81,1.219,5.447,100.8976,1.589,2.833,18.54,0,109.6,13.55,2.35,112.1
"2009-03-01 01:30:30",671564,6.625,151.8,5.424,1.111,6.522,100.8956,1.584,2.846,18.5,0,109.6,13.55,2.34,113.8
"2009-03-01 01:31:00",671565,6.76,152.6,4.675,0.983,6.702,100.8942,1.581,2.81,18.43,0,109.6,13.55,2.34,114.6
"2009-03-01 01:31:30",671566,6.129,148.7,5.962,1.213,5.796,100.8885,1.566,2.812,18.47,0,109.6,13.56,2.32,110.7
"2009-03-01 01:32:00",671567,6.611,149.8,5.611,1.016,6.606,100.8828,1.552,2.829,18.49,0,109.6,13.55,2.31,111.8
"2009-03-01 01:32:30",671568,6.652,150.1,5.019,1.041,6.417,100.8831,1.553,2.778,18.46,0,109.6,13.56,2.31,112.1
"2009-03-01 01:33:00",671569,6.409,148.8,5.606,1.163,5.804,100.8826,1.551,2.787,18.5,0,109.6,13.56,2.31,110.8
"2009-03-01 01:33:30",671570,5.869,147.7,6.136,1.178,5.269,100.8828,1.552,2.799,18.54,0,109.6,13.56,2.31,109.7
"2009-03-01 01:34:00",671571,6.749,153.4,5.548,1.108,6.45,100.8828,1.552,2.797,18.52,0,109.6,13.56,2.31,115.4
"2009-03-01 01:34:30",671572,6.69,152.4,5.999,1.183,6.024,100.8828,1.552,2.759,18.45,0,109.6,13.56,2.31,114.4
"2009-03-01 01:35:00",671573,6.156,148.3,5.932,1.199,5.511,100.8828,1.552,2.827,18.52,0,109.5,13.56,2.31,110.3
"2009-03-01 01:35:30",671574,6.65,151.6,5.548,1.146,6.117,100.8828,1.552,2.826,18.59,0,109.5,13.56,2.31,113.6
"2009-03-01 01:36:00",671575,6.834,152.8,5.175,1.069,6.318,100.8828,1.552,2.79,18.57,0,109.5,13.56,2.31,114.8
"2009-03-01 01:36:30",671576,6.891,152.5,5.546,1.056,6.208,100.8828,1.552,2.785,18.58,0,109.5,13.56,2.31,114.5
"2009-03-01 01:37:00",671577,6.838,153.2,5.301,1.163,6.563,100.8828,1.552,2.759,18.63,0,109.5,13.56,2.31,115.2
"2009-03-01 01:37:30",671578,7.04,153.2,5.422,1.037,6.598,100.8828,1.552,2.747,18.66,0,109.5,13.56,2.31,115.2
"2009-03-01 01:38:00",671579,6.99,153.4,5.546,1.067,6.606,100.8828,1.552,2.793,18.74,0,109.5,13.56,2.31,115.4
"2009-03-01 01:38:30",671580,7.068,153.8,5.308,0.989,6.859,100.8828,1.552,2.799,18.77,0,109.5,13.56,2.31,115.8
"2009-03-01 01:39:00",671581,7.063,153.9,5.594,0.986,6.677,100.8826,1.551,2.787,18.76,0,109.5,13.56,2.31,115.9
"2009-03-01 01:39:30",671582,6.915,155.6,5.345,1.086,6.381,100.8817,1.549,2.795,18.76,0,109.5,13.56,2.31,117.6
"2009-03-01 01:40:00",671583,6.418,153.4,5.916,1.227,5.319,100.8794,1.543,2.756,18.73,0,109.5,13.56,2.30,115.4
"2009-03-01 01:40:30",671584,6.818,155.5,6.004,1.137,6.064,100.8778,1.539,2.728,18.69,0,109.5,13.56,2.30,117.5
"2009-03-01 01:41:00",671585,6.83,156,5.727,1.107,6.258,100.8746,1.531,2.791,18.76,0,109.5,13.56,2.29,118.0
"2009-03-01 01:41:30",671586,7.322,158.9,3.386,0.646,7.56,100.8755,1.533,2.853,18.79,0,109.5,13.55,2.29,120.9
"2009-03-01 01:42:00",671587,7.194,157.5,4.527,0.854,6.869,100.8721,1.524,2.807,18.72,0,109.5,13.56,2.28,119.5
"2009-03-01 01:42:30",671588,6.512,155.2,6.224,1.172,5.457,100.8701,1.519,2.773,18.69,0,109.5,13.55,2.28,117.2
"2009-03-01 01:43:00",671589,5.913,153.4,6.055,1.121,4.389,100.8729,1.527,2.687,18.62,0,109.5,13.55,2.28,115.4
"2009-03-01 01:43:30",671590,6.123,154.7,5.944,1.17,4.876,100.8721,1.524,2.711,18.64,0,109.5,13.56,2.28,116.7
"2009-03-01 01:44:00",671591,6.723,156.6,5.944,1.138,6.414,100.8718,1.524,2.799,18.72,0,109.5,13.56,2.28,118.6
"2009-03-01 01:44:30",671592,7.283,159.8,4.827,0.776,7.06,100.8721,1.524,2.83,18.76,0,109.5,13.56,2.28,121.8
"2009-03-01 01:45:00",671593,7.339,161.3,2.846,0.764,7.294,100.8707,1.521,2.853,18.82,0,109.5,13.56,2.28,123.3
"2009-03-01 01:45:30",671594,7.145,158,5.474,0.973,6.273,100.8746,1.531,2.785,18.76,0,109.5,13.56,2.29,120.0
"2009-03-01 01:46:00",671595,6.537,155.7,6.409,1.19,5.136,100.8735,1.528,2.683,18.64,0,109.5,13.56,2.29,117.7
"2009-03-01 01:46:30",671596,5.913,151.2,6.196,1.089,3.719,100.8729,1.527,2.571,18.56,0,109.5,13.56,2.28,113.2
"2009-03-01 01:47:00",671597,6.61,152.4,6.088,1.177,5.859,100.8704,1.52,2.79,18.77,0,109.5,13.56,2.28,114.4
"2009-03-01 01:47:30",671598,7.405,155.6,3.24,0.675,7.702,100.8667,1.511,2.834,18.8,0,109.5,13.57,2.27,117.6
"2009-03-01 01:48:00",671599,7.452,154.2,4.031,0.685,7.571,100.8682,1.514,2.841,18.79,0,109.5,13.57,2.27,116.2
"2009-03-01 01:48:30",671600,7.383,154.4,2.745,0.845,7.187,100.8682,1.514,2.852,18.81,0,109.5,13.57,2.27,116.4
"2009-03-01 01:49:00",671601,7.483,151.2,4.923,0.815,6.736,100.8625,1.5,2.797,18.81,0,109.5,13.56,2.26,113.2